FW3636 Weather Reports


Display with metric or nautical units.
time (UTC)temp
F
wind
direction
speed
MPH
gust
MPH
rain 1hr
in
rain 24hr
in
rain mn
in
humidity
%
barometer
mb
20211022140504 43 270 2.0 4.0 0.00 0.00 0.00 32 1029.0
20211022140005 43 261 3.0 4.0 0.00 0.00 0.00 32 1029.0
20211022135504 42 262 3.0 5.0 0.00 0.00 0.00 34 1029.1
20211022134005 40 270 3.0 5.0 0.00 0.00 0.00 36 1028.8
20211022133505 40 268 3.0 5.0 0.00 0.00 0.00 36 1029.2
20211022133005 40 269 3.0 5.0 0.00 0.00 0.00 37 1029.1
20211022132504 40 270 3.0 5.0 0.00 0.00 0.00 37 1029.1
20211022132005 40 270 2.0 4.0 0.00 0.00 0.00 37 1029.2
20211022131504 40 270 3.0 6.0 0.00 0.00 0.00 37 1029.0
20211022131005 40 270 4.0 6.0 0.00 0.00 0.00 39 1029.1
20211022130005 40 273 3.0 6.0 0.00 0.00 0.00 39 1029.2
20211022125504 40 259 3.0 6.0 0.00 0.00 0.00 39 1029.2
20211022125005 40 247 3.0 6.0 0.00 0.00 0.00 39 1029.1
20211022123005 40 267 4.0 6.0 0.00 0.00 0.00 39 1029.0
20211022122504 41 269 4.0 6.0 0.00 0.00 0.00 37 1029.2
20211022122005 41 267 4.0 7.0 0.00 0.00 0.00 37 1029.1
20211022121504 41 265 4.0 7.0 0.00 0.00 0.00 37 1029.1
20211022120504 41 256 3.0 5.0 0.00 0.00 0.00 37 1029.3
20211022115005 42 270 4.0 6.0 0.00 0.00 0.00 36 1029.1
20211022114005 42 268 3.0 5.0 0.00 0.00 0.00 36 1029.1
20211022113504 42 264 3.0 5.0 0.00 0.00 0.00 36 1029.1
20211022113005 42 253 3.0 5.0 0.00 0.00 0.00 36 1029.3
20211022112504 42 254 3.0 5.0 0.00 0.00 0.00 36 1029.3
20211022105504 41 250 2.0 4.0 0.00 0.00 0.00 35 1029.0
20211022103504 42 256 2.0 4.0 0.00 0.00 0.00 35 1029.2
20211022103005 42 269 2.0 4.0 0.00 0.00 0.00 35 1029.2
20211022102504 42 269 3.0 4.0 0.00 0.00 0.00 34 1029.1
20211022102005 43 271 3.0 5.0 0.00 0.00 0.00 34 1029.0
20211022100504 43 266 2.0 4.0 0.00 0.00 0.00 32 1029.2
20211022100005 43 267 2.0 4.0 0.00 0.00 0.00 32 1029.2
20211022094504 44 270 2.0 4.0 0.00 0.00 0.00 33 1029.2
20211022093504 45 270 1.0 3.0 0.00 0.00 0.00 32 1029.2
20211022092504 45 270 1.0 3.0 0.00 0.00 0.00 31 1029.6
20211022092005 45 270 2.0 4.0 0.00 0.00 0.00 32 1029.5
20211022091504 44 248 2.0 4.0 0.00 0.00 0.00 32 1029.5
20211022090504 44 229 2.0 4.0 0.00 0.00 0.00 32 1029.4
20211022085504 44 225 2.0 4.0 0.00 0.00 0.00 29 1029.5
20211022085005 44 225 2.0 4.0 0.00 0.00 0.00 31 1029.4
20211022084504 44 237 3.0 5.0 0.00 0.00 0.00 31 1029.6
20211022081504 44 274 2.0 4.0 0.00 0.00 0.00 28 1029.7
20211022081005 45 273 3.0 4.0 0.00 0.00 0.00 27 1029.6
20211022080504 46 270 3.0 4.0 0.00 0.00 0.00 26 1029.8
20211022075005 48 268 4.0 7.0 0.00 0.00 0.00 24 1029.8
20211022074504 48 296 2.0 6.0 0.00 0.00 0.00 25 1029.6
20211022074005 48 305 3.0 7.0 0.00 0.00 0.00 24 1029.9
20211022071504 48 272 4.0 6.0 0.00 0.00 0.00 24 1029.6
20211022071005 49 275 4.0 6.0 0.00 0.00 0.00 21 1029.7
20211022065504 50 263 4.0 7.0 0.00 0.00 0.00 20 1029.8
20211022064005 50 260 2.0 4.0 0.00 0.00 0.00 21 1030.0
20211022063504 49 245 2.0 4.0 0.00 0.00 0.00 22 1030.1
20211022063005 49 260 3.0 4.0 0.00 0.00 0.00 22 1030.1
20211022062504 48 270 3.0 4.0 0.00 0.00 0.00 22 1030.1
20211022061504 49 265 3.0 5.0 0.00 0.00 0.00 22 1030.1
20211022061005 49 266 4.0 5.0 0.00 0.00 0.00 22 1030.5
20211022060504 50 270 4.0 6.0 0.00 0.00 0.00 20 1030.1
20211022060007 50 267 3.0 6.0 0.00 0.00 0.00 20 1030.2
20211022055504 49 250 3.0 6.0 0.00 0.00 0.00 20 1030.2
20211022055005 49 254 3.0 6.0 0.00 0.00 0.00 20 1030.2
20211022053504 49 231 4.0 5.0 0.00 0.00 0.00 19 1030.1
20211022051504 50 251 4.0 7.0 0.00 0.00 0.00 17 1030.4
20211022051004 50 249 4.0 7.0 0.00 0.00 0.00 17 1030.2
20211022045005 51 267 3.0 6.0 0.00 0.00 0.00 17 1030.5
20211022044504 51 268 3.0 5.0 0.00 0.00 0.00 17 1030.5
20211022043504 50 270 2.0 4.0 0.00 0.00 0.00 17 1030.7
20211022042504 50 293 2.0 6.0 0.00 0.00 0.00 16 1030.5
20211022042004 51 248 4.0 7.0 0.00 0.00 0.00 16 1030.4
20211022041005 51 275 4.0 7.0 0.00 0.00 0.00 16 1030.3
20211022040005 53 270 4.0 7.0 0.00 0.00 0.00 18 1030.3
20211022035504 53 264 4.0 7.0 0.00 0.00 0.00 18 1030.3
20211022035004 53 248 4.0 7.0 0.00 0.00 0.00 17 1030.3
20211022034504 53 232 4.0 6.0 0.00 0.00 0.00 17 1030.3
20211022032504 54 254 6.0 8.0 0.00 0.00 0.00 18 1030.2
20211022025504 54 242 5.0 8.0 0.00 0.00 0.00 18 1030.2
20211022025005 54 243 5.0 8.0 0.00 0.00 0.00 18 1030.4
20211022024504 54 240 5.0 8.0 0.00 0.00 0.00 18 1030.4
20211022022504 54 249 5.0 9.0 0.00 0.00 0.00 17 1030.4
20211022022005 54 254 5.0 8.0 0.00 0.00 0.00 16 1030.4
20211022021504 55 236 5.0 7.0 0.00 0.00 0.00 17 1030.3
20211022020504 57 225 4.0 6.0 0.00 0.00 0.00 16 1030.2
20211022020005 57 225 4.0 6.0 0.00 0.00 0.00 16 1030.4
20211022015504 57 225 4.0 7.0 0.00 0.00 0.00 14 1030.3
20211022014504 57 239 4.0 7.0 0.00 0.00 0.00 16 1030.3
20211022014005 57 242 3.0 5.0 0.00 0.00 0.00 16 1030.1
20211022013504 58 250 3.0 4.0 0.00 0.00 0.00 13 1030.2
20211022013005 58 245 3.0 5.0 0.00 0.00 0.00 13 1030.2
20211022012504 59 238 3.0 5.0 0.00 0.00 0.00 13 1030.2
20211022012004 59 230 3.0 4.0 0.00 0.00 0.00 14 1030.2
20211022011005 60 236 2.0 4.0 0.00 0.00 0.00 13 1030.2
20211022010005 62 269 1.0 3.0 0.00 0.00 0.00 14 1030.2
20211022005504 63 282 1.0 3.0 0.00 0.00 0.00 14 1030.1
20211022005005 63 311 0.0 2.0 0.00 0.00 0.00 12 1030.1
20211022004504 64 314 0.0 2.0 0.00 0.00 0.00 13 1030.0
20211022004004 64 314 0.0 2.0 0.00 0.00 0.00 12 1030.1
20211022002504 66 305 0.0 2.0 0.00 0.00 0.00 12 1029.9
20211022001009 69 288 1.0 3.0 0.00 0.00 0.00 11 1029.8
20211021235503 70 276 2.0 4.0 0.00 0.00 0.00 13 1029.8
20211021234505 70 260 3.0 5.0 0.00 0.00 0.00 13 1029.9
20211021233504 72 240 4.0 8.0 0.00 0.00 0.00 12 1029.7
20211021233006 73 254 5.0 8.0 0.00 0.00 0.00 12 1029.7
20211021232508 72 257 5.0 9.0 0.00 0.00 0.00 12 1029.8
20211021231504 73 255 5.0 9.0 0.00 0.00 0.00 12 1029.8
20211021231004 73 240 5.0 11.0 0.00 0.00 0.00 11 1029.8
20211021225504 73 211 6.0 10.0 0.00 0.00 0.00 12 1030.0
20211021224505 73 223 6.0 11.0 0.00 0.00 0.00 11 1030.3
20211021224006 73 225 7.0 11.0 0.00 0.00 0.00 11 1030.3
20211021223504 73 228 8.0 11.0 0.00 0.00 0.00 12 1029.9
20211021223005 74 217 8.0 13.0 0.00 0.00 0.00 11 1030.1
20211021220503 74 236 2.0 9.0 0.00 0.00 0.00 11 1030.3
20211021220006 74 214 3.0 9.0 0.00 0.00 0.00 11 1030.1
20211021215504 73 217 5.0 10.0 0.00 0.00 0.00 11 1030.4
20211021215006 73 242 6.0 11.0 0.00 0.00 0.00 12 1030.2
20211021214504 73 250 5.0 11.0 0.00 0.00 0.00 12 1030.2
20211021214005 73 240 5.0 11.0 0.00 0.00 0.00 11 1030.3
20211021213503 73 236 4.0 14.0 0.00 0.00 0.00 12 1030.3
20211021213006 73 196 4.0 14.0 0.00 0.00 0.00 12 1030.3
20211021210504 70 188 4.0 8.0 0.00 0.00 0.00 13 1030.3
20211021204005 72 150 5.0 11.0 0.00 0.00 0.00 12 1030.5
20211021202504 72 194 3.0 10.0 0.00 0.00 0.00 12 1030.7
20211021202005 72 161 4.0 10.0 0.00 0.00 0.00 12 1030.8
20211021201503 72 157 4.0 10.0 0.00 0.00 0.00 12 1031.1
20211021201004 71 261 3.0 7.0 0.00 0.00 0.00 13 1031.1
20211021200005 71 256 2.0 7.0 0.00 0.00 0.00 13 1031.0
20211021195504 71 359 3.0 8.0 0.00 0.00 0.00 13 1031.1
20211021194504 70 300 3.0 7.0 0.00 0.00 0.00 11 1031.4
20211021194004 70 213 4.0 8.0 0.00 0.00 0.00 13 1031.3
20211021193005 70 355 4.0 8.0 0.00 0.00 0.00 11 1031.5
20211021192504 69 349 4.0 8.0 0.00 0.00 0.00 11 1031.5
20211021191504 69 6 5.0 8.0 0.00 0.00 0.00 11 1031.7